Simultaneous Nadir Overpasses (SNOs) Predictions

Prediction of SNOs between GOES-15 and LANDSAT-8 Satellite Orbit:

Table of predicted SNOs for the next 14.0 days since TLE Epoch: 8/24/2024
Index Date Time (GOES-15) GOES-15 Lat,Lon LANDSAT-8 Lat,Lon Distance(km) Time Diff (sec)
1 08/25/2024 06:05:05 -0.23, 61.53 -0.36, 62.02 56.09 80
2 08/27/2024 05:52:53 -0.22, 61.51 -0.98, 64.99 395.66 80
3 08/27/2024 18:11:37 0.25, 61.62 -0.13, 59.80 207.59 80
4 08/29/2024 18:02:04 0.24, 61.61 0.47, 62.77 131.72 80
5 08/30/2024 06:20:39 -0.27, 61.48 0.56, 57.60 441.60 80
6 08/31/2024 17:49:51 0.24, 61.59 1.11, 65.73 471.18 80
7 09/01/2024 06:08:27 -0.26, 61.46 -0.08, 60.57 101.98 80
8 09/03/2024 05:58:53 -0.26, 61.45 -0.69, 63.54 237.81 80
9 09/03/2024 18:17:36 0.29, 61.56 -0.38, 58.35 364.75 80
10 09/05/2024 18:05:21 0.28, 61.54 0.21, 61.33 25.04 80
